Location: ??????
(56.0120°N, 39.1740°E)
Time: 08:16:40
(UTC+00:00)

ARIANE 6 FM1 Upper Stage - Pass Details

Date: 14 April 2026
Orbit: 526 x 602 km, 62.0° (Epoch: 10 May)

Event Time Altitude Azimuth Distance (km) Brightness Sun altitude
Rises 18:20:07 0° 257° (WSW) 2,714 6.7 -14.2°
Reaches altitude 10° 18:22:24 10° 263° (W) 1,811 5.8 -14.4°
Maximum altitude 18:26:21 49° 339° (NNW) 703 3.6 -14.8°
Drops below altitude 10° 18:30:15 10° 55° (NE) 1,787 5.1 -15.2°
Sets 18:32:30 0° 61° (ENE) 2,673 6.0 -15.4°
